Regional Weather Roundup
Issued by NWS Grand Forks, ND

Home | Current Version | Previous Version | Graphics & Text | Print | Product List | Glossary On
Versions: 1 2 3 4 5 6 7 8 9 10 11 12 13 14 15 16 17 18 19 20 21 22 23 24 25 26 27 28 29 30 31 32 33 34 35 36 37 38 39 40 41 42 43 44 45 46 47 48 49 50
000
ASUS43 KFGF 152210
RWRFGF
PRAIRIE TO PINES  WEATHER ROUNDUP
NATIONAL WEATHER SERVICE EASTERN NORTH DAKOTA/GRAND FORKS ND
400 PM CST FRI DEC 15 2017

 **SATELLITE DATA USED TO AUGMENT SKY COVER AT AUTOMATED STATIONS**
 *****  WEATHER ACROSS EASTERN NORTH DAKOTA  *****

CITY           SKY/WX    TMP DP  RH WIND       PRES   REMARKS
GRAND FORKS    LGT SNOW  22  20  92 S12       29.67S FOG     WCI  10
GRAND FRKS AFB LGT SNOW  23  19  86 S12       29.64F FOG     WCI  12
GRAND FRKS NWS   N/A     21 N/A N/A S12         N/A  WCI   9
DEVILS LAKE    LGT SNOW  28  28 100 SE8       29.57S FOG     WCI  20
FARGO          CLOUDY    28  24  85 SE12      29.66F WCI  18
WAHPETON ARPT  CLOUDY    28  27  93 SE9       29.68F WCI  20
$$

 ***** WEATHER ACROSS CENTRAL AND WESTERN NORTH DAKOTA  *****

CITY           SKY/WX    TMP DP  RH WIND       PRES   REMARKS
BISMARCK       FAIR      44  25  47 CALM      29.55F
MINOT          FAIR      41  26  55 SW6       29.49F
JAMESTOWN      CLOUDY    32  31  96 S10       29.56F WCI  24
MINOT AFB      FAIR      38  26  61 W5        29.48F
GARRISON         N/A     39  24  55 W6        29.52F
WILLISTON        N/A    N/A N/A N/A MISG      29.54F
DICKINSON      FAIR      45  23  42 W16       29.55F
HETTINGER      FAIR      45  20  36 W17       29.60F
$$

 *****  OTHER AIRPORT OBSERVATIONS IN OUR AREA  *****

CITY           SKY/WX    TMP DP  RH WIND       PRES   REMARKS
WALHALLA       LGT SNOW  21  21 100 SE12      29.63S WCI   9
GRAFTON AIRPOR CLOUDY    21  19  93 SE10G17   29.68F FOG     WCI  10
VALLEY CITY AR MOCLDY    28  28 100 SE9       29.60F WCI  20
CANDO          LGT SNOW  28  28 100 SE9       29.58R WCI  20
CAVALIER APRT  MOCLDY    21  19  93 SE9       29.65S FOG     WCI  11
GWINNER          N/A     34  30  86 S8        29.62F
SHEYENNE NWR     N/A     30  30 100 SE7       29.95S WCI  23
ROLLA          LGT SNOW  28  28 100 S9        29.53S WCI  20
 ***** THE ABOVE OBSERVATIONS ARE NON NWS ARE NOT QUALITY
       CONTROLLED AND MAY MIS-REPORT RAIN FOR SNOW...
$$

  *****  WEATHER ACROSS NORTHERN MINNESOTA  *****

CITY           SKY/WX    TMP DP  RH WIND       PRES   REMARKS
FLAG ISLAND    FLURRIES   7   3  85 E3        29.75R
WARROAD        FLURRIES  10   7  85 NE8       29.74R WCI  -1
ROSEAU         FLURRIES  14   9  79 E7        29.72S WCI   4
HALLOCK        LGT SNOW  19  16  86 SE12      29.68F WCI   7
THF RVR FALLS  LGT SNOW  18  12  79 SE9       29.69  FOG     WCI   6
BAUDETTE       FLURRIES  10   5  80 E6        29.73S WCI   0
WASKISH        FLURRIES  12   9  85 SE3       29.73R
CROOKSTON      FLURRIES  21  18  86 SE10      29.69F WCI  10
STEPHEN NDAWN    N/A     19  16  86 SE12        N/A  WCI   7
GREENBUSH NDAW   N/A     16  10  79 E9          N/A  WCI   4
$$
  *****  WEATHER ACROSS CENTRAL AND WEST MINNESOTA  *****

CITY           SKY/WX    TMP DP  RH WIND       PRES   REMARKS
FOSSTON        LGT SNOW  18  12  79 SE3       29.69S
BEMIDJI        FLURRIES  14   9  80 SE6       29.69F WCI   5
PARK RAPIDS    CLOUDY    18  12  77 SE7       29.68F WCI   9
ELBOW LAKE     CLOUDY    28  26  93 SE10      29.69F WCI  18
WADENA         MIX PCPN  21  16  79 S6        29.69F WCI  14
DETROIT LAKES  CLOUDY    25  19  80 S9        29.68F WCI  15
MOORHEAD       FAIR      27  21  80 CALM      29.67F
FERGUS FALLS   CLOUDY    27  25  93 SE8       29.71F WCI  18
MORRIS MN      FAIR      30  28  93 SE9       29.69F WCI  22
STAPLES        CLOUDY    19  12  73 S6        29.71F WCI  11
$$
  *****  WEATHER ELSEWHERE ACROSS MINNESOTA  *****

CITY           SKY/WX    TMP DP  RH WIND       PRES   REMARKS
DULUTH         MOCLDY    11   4  73 CALM      29.73S
INTRNTL FALLS  CLOUDY     7   1  76 CALM      29.75S
ELY            FAIR       9   1  72 CALM      29.73S
CLOQUET        CLOUDY    16   5  62 CALM      29.74S
WHEATON        MOCLDY    30  28  93 SE9       29.69F WCI  22
BRAINERD       CLOUDY    21  12  68 S5        29.73F WCI  15
HIBBING        CLOUDY    11   3  70 CALM      29.73S
ALEXANDRIA     CLOUDY    27  22  81 SE9       29.70F WCI  18
SAINT CLOUD    CLOUDY    24  18  77 SE7       29.75F WCI  16
MINNEAPOLIS    CLOUDY    28  22  78 SE3       29.79S
$$

  *****  WEATHER ACROSS SOUTH DAKOTA  *****

CITY           SKY/WX    TMP DP  RH WIND       PRES   REMARKS
SIOUX FALLS    MOCLDY    40  26  57 SW8       29.73F
BROOKINGS      CLOUDY    38  26  62 S9        29.68F
WATERTOWN      CLOUDY    36  30  79 S8        29.64F
HURON          FAIR      42  26  53 S9        29.65F
SISSETON         N/A     35  31  85 SE6       29.65F
ABERDEEN       CLOUDY    40  27  59 S8        29.63F
MITCHELL       FAIR      44  27  51 S8        29.68F
PIERRE         FAIR      51  27  39 W12       29.64S
MOBRIDGE       FAIR      46  28  49 NW3       29.57F
RAPID CITY     FAIR      51  18  27 E6        29.69F
$$

  *****  SOME WEATHER IN NEARBY STATES *****

CITY           SKY/WX    TMP DP  RH WIND       PRES   REMARKS
GLASGOW MT     FAIR      41  24  51 CALM      29.59S
GREAT FALLS MT FAIR      46  16  30 SW25G37   29.73S
CHEYENNE WY    FAIR      50  10  20 W17       29.90F
SCOTTSBLUFF NE FAIR      57  13  17 W18G26    29.82F
OMAHA NE       FAIR      49  24  37 SW13G24   29.84F
DES MOINES IA  CLOUDY    45  21  38 SW22      29.86F
DAVENPORT IA   CLOUDY    37  23  56 SW12      29.92F
CHICAGO IL     CLOUDY    32  23  69 W9        29.90R WCI  24
EAU CLAIRE WI  CLOUDY    21  14  74 CALM      29.80S
LA CROSSE WI   CLOUDY    32  26  78 SW8       29.82S WCI  25
$$

  *****  SOME NATIONAL WEATHER *****

CITY           SKY/WX    TMP DP  RH WIND       PRES   REMARKS
LA GUARDIA NY  SNOW      25  22  88 VRB5      29.93R VSB 1/2 WCI  19
RALEIGH NC     CLOUDY    40  26  57 NW5       29.97R
ATLANTA GA     MOCLDY    38  24  57 NW14      30.11R
NEW ORLEANS LA PTSUNNY   49  37  63 N6        30.21S
OKLAHOMA CITY  FAIR      50  22  33 SW12      30.14F
ALBUQUERQUE NM FAIR      47  15  27 SW3       30.19F
SALT LAKE CITY PTSUNNY   42  25  50 N7        30.13F
LOS ANGELES CA FAIR      76  26  15 W9        30.04F
BOISE ID       CLOUDY    28  22  78 NW3       30.19F
SEATTLE WA     CLOUDY    42  40  92 S6        30.17F
$$

*** WEATHER ACROSS MANITOBA...SASKATCHEWAN AND ONTARIO ***
                ***ONTARIO***

CITY           SKY/WX    TMP DP  RH WIND       PRES   REMARKS
GERALDTON      LGT SNOW  -6 -11  77 N6        29.77R WCI -18
THUNDER BAY    PTCLDY     9  -2  61 NW7       29.80R WCI  -3
SIOUX LOOKOUT  CRYSTALS  -4  -9  77 N6        29.78R WCI -16
TORONTO        LGT SNOW  25  19  80 SW9       29.71F WCI  15
BIG TROUT LK   FLURRIES  -8 -13  77 W6        29.87S WCI -21
PICKLE LAKE    CRYSTALS -11 -18  70 NW5       29.82R WCI -23
DRYDEN         PTCLDY    -2  -6  84 NE6       29.75R WCI -14
KENORA         FLURRIES   1  -2  85 NE7       29.75R WCI -11
$$
                *** MANITOBA***

CITY           SKY/WX    TMP DP  RH WIND       PRES   REMARKS
BRANDON        LGT SNOW  19  18  93 E16       29.55F VSB 3/4 WCI   5
DAUPHIN        LGT SNOW  16  14  93 E17       29.60S WCI   0
ISLAND LAKE    PTCLDY    -9 -15  77 SE5       29.88R WCI -21
PILOT MOUND      N/A     27  25  93 SE8         N/A  WCI  18
THE PAS        CLOUDY     3  -2  78 E12G18    29.66F WCI -13
THOMPSON       MOCLDY   -13 -18  77 VRB2      29.85R
WINNIPEG       FLURRIES  12   9  85 E13G20    29.71F WCI  -3
LYNN LAKE      MOCLDY   -15 -18  84 E8        29.72F WCI -32
CHURCHILL      LGT SNOW  -9 -13  84 NW12      29.96S FOG     WCI -29
GILLAM         CLEAR    -18 -24  76 SW3       29.92S
$$
                ***SASKATCHEWAN***

CITY           SKY/WX    TMP DP  RH WIND       PRES   REMARKS
ESTEVAN        CLOUDY    41  27  56 W10       29.49R
KINDERSLEY     CLOUDY    37  30  75 W9        29.60R
LLOYDMINSTER   MOCLDY    37  30  75 W14       29.54R
PRINCE ALBERT  FLURRIES  21  19  93 E6        29.48R WCI  14
REGINA         MOCLDY    37  32  81 W13       29.50R
YORKTON        FLURRIES  28  27  93 SE8       29.47R WCI  20
N. BATTLEFORD  CLEAR     39  30  70 W13G21    29.52R
LA RONGE       LGT SNOW   9   5  85 E9G18     29.49F WCI  -5
SASKATOON      MOCLDY    37  32  81 W14       29.50R
SWIFT CURRENT  LGT RAIN  37  34  87 NW10      29.59S
$$
NOTE: THESE ARE AUTOMATED STATIONS WITH LIMITED QUALITY CONTROL
      "FAIR" INDICATES FEW OR NO CLOUDS BELOW 12,000 FEET WITH NO
      SIGNIFICANT WEATHER AND/OR OBSTRUCTIONS TO VISIBILITY.
      SKY/WX - SKY CONDITION AND SIGNIFICANT WEATHER.
      TMP - AIR TEMPERATURE.    DP   - DEWPOINT TEMPERATURE.
      RH  - RELATIVE HUMIDITY.  PRES - PRESSURE.
      HX  - HEAT INDEX.         WCI  - WIND CHILL INDEX.
$




USA.gov is the U.S. government's official web portal to all federal, state and local government web resources and services.